FENGYUN 1C DEB

Satellite information

Favourite Embed

Satellite Type and Status

DEBRISIN ORBIT

Key statistics

Satellite FENGYUN 1C DEB at a glance.

Uptime

9714

Days in orbit

Revolutions

≈ 14.3

Per day

Orbit

SSO

Sun Synchronous Orbit

Inclination

101.5

Latest

Satellite identification and parameters

Extended collection of information and parameters for FENGYUN 1C DEB.

Object identification

Identified? True

Debris? True

Object name: FENGYUN 1C DEB

International designator: 1999-025CQY

Object number (NORAD): 32106

Object ID (CCSDS): 32106

Country: PEOPLES REPUBLIC OF CHINA (PRC)

Current information (Y/N): Y

RCS size: SMALL

Orbital parameters

Period: 100.922 minutes

Inclination: 101.4628 deg

SMA: 7180.457 km

Apoapsis: 881.322 km

Periapsis: 723.322 km

RAAN: 311.4602 deg

Eccentricy: 0.01100208

Argument of periapsis: 55.4734 deg

Mean anomaly: 305.6765 deg

Mean motion: 14.2683793 rev/day

Mean motion (dot): 0.00017494 rev/day2

B* drag term: 0.0067717781 1/REarth

Two-line elements (TLE)

Creation date: Dec. 8, 2025, 3:46 a.m.

Reference frame: TEME

Reference center: EARTH

Epoch: Dec. 7, 2025, 3:17 p.m. UTC

TLE line 0: 0 FENGYUN 1C DEB

TLE line 1: 1 32106U 99025CQY 25341.63702840 .00017494 00000-0 67718-2 0 9998

TLE line 2: 2 32106 101.4628 311.4602 0110021 55.4734 305.6765 14.26837930693199

Live tracking on map

Real-time ground track for satellite FENGYUN 1C DEB.

In-orbit conjunctions

A list of the most updated potential collisions computed for object FENGYUN 1C DEB.

Target Orbit TCA Probability of collision Miss distance Type
CZ-6A DEB SSO 2024-09-27 22:58:11 0.0001195919 62.0 (m) DEBRIS
PEGASUS DEB LEO 2024-09-24 20:45:21 0.0003705736 521.0 (m) DEBRIS
IRS 1A SSO 2024-08-11 08:54:09 0.000145466 769.0 (m) PAYLOAD

Associated space launch

Chinese polar orbiting meteorological satellite

FENGYUN 1C DEB was lifted into orbit during the mission ‘Long March 4B | Feng Yun 1C’, on board a Long March 4B space rocket.

The launch took place on May 10, 1999, 1:33 a.m. from Launch Complex 7.

For more information about the launch, click the button.

Launch to space Long March 4B | Feng Yun 1C
Long March 4B | Feng Yun 1C

Agency: N/A

Status: Launch Successful

Launch date: May 10, 1999, 1:33 a.m. UTC

Rocket: Long March 4B

Launch pad: Launch Complex 7

Location: Taiyuan Satellite Launch Center, People's Republic of China

...

Latest news about this satellite

There are no fresh news available about this satellite. Check back as we update our databases every day.


Newsletter sign-up

Weekly statistics, charts and insights to help you stay on top of the space industry.